Home > Weather > Mutsamudu > Past weeks

Flag for Comoros Past Weather in Mutsamudu, Comoros — Yesterday and Last 2 Weeks

Now
75 °F

Passing clouds.


Feels Like: 77 °F
Forecast: 74 / 77 °F
Wind: 18 mph from South

Location: Dzaoudzi / Pamanzi Mayotte

Current Time: Jul 1, 2016 at 5:49:40 AM

Latest Report: Jul 1, 2016 at 5:00 AM


Visibility: N/A

Pressure: 30.07 "Hg

Humidity: 74%

Dew Point: 66 °F

Location of MutsamuduLocation

Past Weather in Mutsamudu — Graph

°F

Mutsamudu Temperature Yesterday

Maximum temperature yesterday: 84 °F (at 9:40 AM)
Minimum temperature yesterday: 77 °F (at 12:00 AM)
Average temperature yesterday: 79 °F

High & Low Weather Summary for the Past Weeks

 TemperatureHumidityPressure
High84 °F (Jun 16, 11:30 AM)100% (Jun 18, 1:30 AM)30.12 "Hg (Jun 18, 1:30 AM)
Low73 °F (Jun 18, 1:00 AM)54% (Jun 27, 4:00 PM)29.95 "Hg (Jun 16, 2:30 PM)
Average79 °F72%30.05 "Hg
* Reported Jun 16 4:00 AM — Jul 1 4:30 AM, Mutsamudu, Weather by CustomWeather, © 2016

Note: Actual official high and low records may vary slightly from our data, if they occured in-between our weather recording intervals... More about our weather records

Advertising

Mutsamudu Weather History for the Previous 24 Hours

Scroll right to see more
 ConditionsComfort  
Time TempWeatherWind HumidityBarometerVisibility
4:30 AM
Fri, Jul 1
77 °FWarm.20 mph69%30.04 "HgN/A
4:00 AM77 °FPassing clouds.17 mph74%30.04 "HgN/A
3:30 AM77 °FMostly cloudy.20 mph79%30.04 "HgN/A
3:00 AM79 °FPassing clouds.18 mph70%30.04 "HgN/A
2:30 AM79 °FWarm.18 mph70%30.07 "HgN/A
2:00 AM79 °FWarm.18 mph70%30.07 "HgN/A
1:30 AM79 °FWarm.15 mph70%30.07 "HgN/A
1:00 AM79 °FWarm.15 mph70%30.07 "HgN/A
12:30 AM79 °FWarm.13 mph70%30.09 "HgN/A
12:00 AM79 °FWarm.10 mph70%30.09 "HgN/A
11:30 PM
Thu, Jun 30
79 °FWarm.10 mph70%30.09 "HgN/A
11:00 PM79 °FWarm.10 mph70%30.09 "HgN/A
10:30 PM77 °FWarm.8 mph74%30.12 "HgN/A
10:00 PM77 °FWarm.9 mph74%30.12 "HgN/A
9:30 PM77 °FWarm.8 mph74%30.12 "HgN/A
9:00 PM77 °FWarm.10 mph74%30.12 "HgN/A
8:30 PM77 °FWarm.10 mph74%30.12 "HgN/A
8:00 PM77 °FWarm.10 mph74%30.09 "HgN/A
7:30 PM77 °FWarm.12 mph74%30.09 "HgN/A
7:00 PM77 °FWarm.13 mph74%30.09 "HgN/A
6:30 PM79 °FWarm.14 mph70%30.09 "HgN/A
6:05 PM79 °FPassing clouds.14 mph70%30.07 "HgN/A
5:30 PM79 °FPassing clouds.15 mph70%30.07 "HgN/A
5:00 PM81 °FPassing clouds.16 mph66%30.07 "HgN/A
4:30 PM81 °FPassing clouds.14 mph66%30.04 "HgN/A
4:00 PM81 °FPassing clouds.16 mph70%30.04 "HgN/A
3:30 PM82 °FPassing clouds.16 mph66%30.04 "HgN/A
3:00 PM82 °FPassing clouds.17 mph66%30.04 "HgN/A
2:30 PM82 °FPassing clouds.16 mph66%30.04 "HgN/A
2:00 PM82 °FPassing clouds.15 mph66%30.04 "HgN/A
1:00 PM82 °FPassing clouds.15 mph62%30.07 "HgN/A
12:30 PM84 °FPassing clouds.16 mph62%30.07 "HgN/A
12:00 PM82 °FPassing clouds.16 mph62%30.09 "HgN/A
11:30 AM84 °FScattered clouds.16 mph58%30.09 "HgN/A
11:00 AM82 °FScattered clouds.14 mph62%30.09 "HgN/A
10:30 AM82 °FScattered clouds.14 mph66%30.12 "HgN/A
10:00 AM82 °FPartly sunny.15 mph62%30.12 "HgN/A
9:40 AM84 °FPartly sunny.14 mph62%30.12 "HgN/A
9:00 AM82 °FPartly sunny.15 mph66%30.12 "HgN/A
8:42 AM81 °FPartly sunny.15 mph70%30.12 "HgN/A
8:00 AM81 °FPartly sunny.15 mph70%30.09 "HgN/A
7:30 AM79 °FPartly sunny.16 mph70%30.09 "HgN/A
7:00 AM79 °FPartly sunny.17 mph70%30.07 "HgN/A
6:30 AM79 °FPartly sunny.18 mph70%30.07 "HgN/A
6:00 AM79 °FPassing clouds.17 mph70%30.07 "HgN/A
5:30 AM77 °FPassing clouds.17 mph79%30.04 "HgN/A
5:00 AM77 °FPassing clouds.21 mph79%30.04 "HgN/A
Weather by CustomWeather, © 2016

See weather overviewHow to use our weather pages